EST,Max TemperatureF,Mean TemperatureF,Min TemperatureF,Max Dew PointF,MeanDew PointF,Min DewpointF,Max Humidity, Mean Humidity, Min Humidity, Max Sea Level PressureIn, Mean Sea Level PressureIn, Min Sea Level PressureIn, Max VisibilityMiles, Mean VisibilityMiles, Min VisibilityMiles, Max Wind SpeedMPH, Mean Wind SpeedMPH, Max Gust SpeedMPH,PrecipitationIn, CloudCover, Events, WindDirDegrees
2012-1-1,51,42,32,42,33,24,87,76,66,30.01,29.79,29.56,10,10,5,34,19,47,0.00,7,Rain-Snow,221
2012-1-2,32,28,24,27,23,16,93,79,61,30.07,29.91,29.84,10,3,0,33,24,41,0.02,8,Fog-Snow,279
2012-1-3,26,22,19,18,13,6,86,69,53,30.31,30.20,30.05,10,6,0,30,23,38,0.01,8,Fog-Snow,319
2012-1-4,34,26,19,28,15,9,79,63,51,30.25,30.04,29.91,10,10,10,17,11,25,0.00,2,,203
2012-1-5,42,37,32,28,26,23,79,67,51,30.03,29.93,29.78,10,10,7,20,14,30,0.00,4,,225
2012-1-6,55,48,42,34,32,28,60,53,43,29.77,29.74,29.70,10,10,10,21,15,31,0.00,0,,212
2012-1-7,50,44,37,34,32,30,83,70,50,30.15,29.91,29.68,10,10,10,22,15,29,0.00,3,,252
2012-1-8,37,35,33,28,25,22,75,65,54,30.35,30.29,30.15,10,10,10,16,9,,0.00,4,,338
2012-1-9,43,36,30,26,23,22,72,58,43,30.29,30.11,29.95,10,10,10,17,9,25,0.00,2,,195
2012-1-10,41,36,32,34,30,26,79,71,60,30.06,29.99,29.94,10,10,9,18,10,26,0.00,0,,232
2012-1-11,48,42,35,41,33,26,87,71,42,29.93,29.67,29.44,10,8,2,14,9,22,0.42,5,Rain,132
2012-1-12,46,37,27,43,37,21,93,83,74,29.44,29.37,29.33,10,7,2,25,12,34,0.05,8,Rain-Snow,206
2012-1-13,26,22,19,19,15,10,86,77,68,29.96,29.67,29.45,6,2,0,34,21,43,0.00,8,Snow,224
2012-1-14,24,22,21,19,16,15,93,77,69,30.25,30.12,29.98,8,4,0,18,14,23,0.08,8,Fog-Snow,224
2012-1-15,28,24,21,18,14,12,86,67,53,30.48,30.40,30.25,10,9,2,12,5,21,0.01,5,Snow,152
2012-1-16,46,34,23,41,26,13,83,65,49,30.37,30.05,29.85,10,10,5,26,17,38,0.00,5,Rain,170
2012-1-17,59,46,33,49,41,28,93,80,67,29.94,29.66,29.41,10,8,2,34,18,48,0.45,8,Rain-Snow,212
2012-1-18,32,26,21,25,16,11,75,64,55,30.27,30.16,29.97,10,9,3,28,18,34,0.00,6,Snow,284
2012-1-19,30,24,19,27,18,7,86,71,56,30.13,29.90,29.78,10,6,0,31,17,41,0.00,6,Fog-Snow,237
2012-1-20,24,19,14,18,10,3,86,68,48,30.32,30.18,30.04,10,6,1,12,7,18,0.10,7,Snow,88
2012-1-21,28,24,21,21,18,15,86,73,63,30.32,30.14,29.97,10,9,1,21,10,28,0.06,7,Snow,55
2012-1-22,42,32,21,35,23,14,79,67,57,30.30,30.11,29.90,10,10,9,24,9,32,0.00,3,,150
2012-1-23,57,47,37,49,38,28,85,75,65,29.90,29.71,29.50,10,9,5,29,19,39,0.18,6,Rain-Thunderstorm,196
2012-1-24,37,35,33,30,27,24,87,74,67,30.34,30.13,29.91,10,8,2,22,17,30,0.00,8,,254
2012-1-25,35,34,32,29,25,23,87,72,64,30.39,30.28,30.16,10,7,2,12,5,,0.00,8,Snow,296
2012-1-26,46,40,33,43,34,28,100,88,78,30.19,29.82,29.47,7,3,0,10,4,,0.41,8,Fog-Rain-Snow,74
2012-1-27,41,37,33,39,33,27,100,89,67,30.01,29.68,29.42,10,4,0,24,13,31,0.11,7,Fog-Rain-Snow,258
2012-1-28,37,34,32,32,27,17,89,74,50,30.12,29.91,29.82,10,5,1,31,14,41,0.00,6,Snow,209
2012-1-29,41,36,30,30,22,16,87,64,45,30.23,30.04,29.92,10,8,0,36,19,47,0.00,6,Fog-Snow,243
2012-1-30,50,36,23,29,20,15,72,57,39,30.30,30.16,29.96,10,10,9,25,14,39,0.00,5,Snow,193
2012-1-31,62,56,51,45,34,28,69,45,35,30.02,29.96,29.88,10,10,10,29,20,38,0.00,4,,207